sat.trackr.live / text

‹ back to catalog

STARLINK-32608

NORAD 62124 · 2024-222L

PAYLOAD ACTIVE UNKNOWN

§ Identity

Operator
Country
US
Launch date
2024-11-27
Launch site
AFETR
Launch vehicle
Mass (kg)
RCS (m²)

Purposes: comms

External: N2YO · Heavens-Above · Gunter

§ Orbital elements

Epoch: 2026-05-25T01:57:57.244320Z

Period
94.27 min
Inclination
43.0010°
Eccentricity
0.0000984
Mean motion
15.27591695 rev/d
Perigee alt
482.3 km
Apogee alt
483.7 km
Semi-major
6,861.2 km
B*
6.3047e-4
RAAN
64.6363°
Arg perigee
273.4635°
Mean anomaly
86.6104°
Rev number
8,442

§ Raw data

STARLINK-326081 62124U 24222L   26145.08191255  .00017134  00000+0  63047-3 0  99942 62124  43.0010  64.6363 0000984 273.4635  86.6104 15.27591695 84427

JSON: /api/v1/satellites/62124 · /tle

For live sub-satellite position, see the globe view (requires WebGL).

§ Visibility from observer

Set your observer location to see the next 7 days of passes ≥ 10°. The values pass through the URL so the page stays shareable.

No JS? Fill the form by hand. The geolocation button needs JavaScript.